Weather History for Wheaton NDB, MN

Change the Weather History Date:

Wednesday, November 20, 2013

  Actual Average Record
Temperature  
Mean Temperature 38 °F -  
Max Temperature 51 °F 35 °F 66 °F (1962)
Min Temperature 23 °F 19 °F -4 °F (1978)
Degree Days  
Heating Degree Days 28    
Moisture  
Dew Point 31 °F    
Average Humidity 76    
Maximum Humidity 93    
Minimum Humidity 47    
Precipitation  
Precipitation 0.00 in - - ()
Sea Level Pressure  
Sea Level Pressure 29.86 in    
Wind  
Wind Speed 12 mph (NW)    
Max Wind Speed 24 mph    
Max Gust Speed 31 mph    
Visibility 10 miles    
Events      
Averages and records for this station are not official NWS values.
T = Trace of Precipitation, MM = Missing Value Source: NWS Daily Summary

Daily Weather History Graph

Daily Weather History Graph

Search for Another Location

Airport:

Trip Planner

Search our weather history database for the weather conditions in past years. The results will help you decide how hot, cold, wet, or windy it might be!

Date:

Astronomy

Nov. 20, 2013 Rise Set
Actual Time 7:33 AM CST 4:50 PM CST
Civil Twilight 7:00 AM CST 5:22 PM CST
Nautical Twilight 6:23 AM CST 5:59 PM CST
Astronomical Twilight 5:48 AM CST 6:34 PM CST
Moon 7:34 PM CST (11/20) 9:59 AM CST (11/20)
Length of Visible Light 10h 22m
Length of Day
9h 16m
Waning Gibbous, 91% of the Moon is Illuminated
Nov 20
Waning Gibbous
Nov 25
Last Quarter
Dec 2
New
Dec 9
First Quarter
Dec 17
Full

Hourly Weather History & Observations

Time (CST) Temp. Windchill Dew Point Humidity Pressure Visibility Wind Dir Wind Speed Gust Speed Precip Events Conditions
12:14 AM 48.2 °F - 33.8 °F 58% 29.67 in 10.0 mi SE 10.4 mph - N/A   Clear
12:34 AM 46.4 °F 41.1 °F 33.8 °F 62% 29.67 in 10.0 mi SSE 11.5 mph - N/A   Clear
12:54 AM 50.0 °F - 33.8 °F 54% 29.66 in 10.0 mi SSE 18.4 mph - N/A   Clear
1:14 AM 51.8 °F - 32.0 °F 47% 29.67 in 10.0 mi SSE 12.7 mph 20.7 mph N/A   Clear
1:34 AM 48.2 °F - 33.8 °F 58% 29.68 in 10.0 mi SSE 11.5 mph - N/A   Clear
1:54 AM 50.0 °F - 33.8 °F 54% 29.68 in 10.0 mi SSE 11.5 mph - N/A   Clear
2:14 AM 50.0 °F - 32.0 °F 50% 29.69 in 10.0 mi SSE 12.7 mph - N/A   Clear
2:34 AM 48.2 °F - 33.8 °F 58% 29.71 in 10.0 mi SSE 8.1 mph - N/A   Clear
2:54 AM 48.2 °F - 33.8 °F 58% 29.71 in 10.0 mi SE 10.4 mph - N/A   Clear
3:14 AM 48.2 °F - 33.8 °F 58% 29.71 in 10.0 mi SSE 8.1 mph - N/A   Clear
3:34 AM 48.2 °F - 33.8 °F 58% 29.71 in 10.0 mi SE 8.1 mph - N/A   Scattered Clouds
3:54 AM 48.2 °F - 33.8 °F 58% 29.71 in 10.0 mi SE 10.4 mph - N/A   Mostly Cloudy
4:14 AM 48.2 °F - 33.8 °F 58% 29.71 in 10.0 mi SE 9.2 mph - N/A   Scattered Clouds
4:34 AM 48.2 °F - 33.8 °F 58% 29.71 in 10.0 mi SSE 9.2 mph - N/A   Clear
4:54 AM 46.4 °F 42.4 °F 33.8 °F 62% 29.72 in 10.0 mi SSE 8.1 mph - N/A   Clear
5:14 AM 44.6 °F 40.7 °F 33.8 °F 66% 29.73 in 10.0 mi SE 6.9 mph - N/A   Clear
5:34 AM 44.6 °F 40.2 °F 33.8 °F 66% 29.74 in 10.0 mi SE 8.1 mph - N/A   Clear
5:54 AM 42.8 °F 38.6 °F 33.8 °F 70% 29.75 in 10.0 mi SE 6.9 mph - N/A   Clear
6:14 AM 41.0 °F 36.4 °F 32.0 °F 70% 29.75 in 10.0 mi SSE 6.9 mph - N/A   Clear
6:34 AM 42.8 °F 38.6 °F 32.0 °F 66% 29.75 in 10.0 mi SSE 6.9 mph - N/A   Clear
6:54 AM 39.2 °F 33.6 °F 32.0 °F 75% 29.76 in 10.0 mi SSE 8.1 mph - N/A   Clear
7:14 AM 42.8 °F 38.0 °F 32.0 °F 66% 29.76 in 10.0 mi SSE 8.1 mph - N/A   Clear
7:34 AM 41.0 °F 35.8 °F 32.0 °F 70% 29.78 in 10.0 mi West 8.1 mph - N/A   Clear
7:54 AM 41.0 °F 36.4 °F 32.0 °F 70% 29.79 in 10.0 mi NNW 6.9 mph - N/A   Clear
8:14 AM 37.4 °F 32.1 °F 33.8 °F 87% 29.80 in 10.0 mi NW 6.9 mph - N/A   Clear
8:34 AM 37.4 °F 31.4 °F 33.8 °F 87% 29.81 in 10.0 mi NW 8.1 mph - N/A   Clear
8:54 AM 37.4 °F 29.3 °F 33.8 °F 87% 29.83 in 10.0 mi NW 12.7 mph 17.3 mph N/A   Clear
9:14 AM 37.4 °F 29.8 °F 32.0 °F 81% 29.84 in 10.0 mi NW 11.5 mph - N/A   Clear
9:34 AM 37.4 °F 29.3 °F 32.0 °F 81% 29.83 in 10.0 mi NNW 12.7 mph - N/A   Clear
9:54 AM 37.4 °F 28.5 °F 33.8 °F 87% 29.84 in 10.0 mi NNW 15.0 mph - N/A   Clear
10:14 AM 37.4 °F 28.9 °F 33.8 °F 87% 29.85 in 10.0 mi NNW 13.8 mph 19.6 mph N/A   Clear
10:34 AM 39.2 °F 32.0 °F 33.8 °F 81% 29.86 in 10.0 mi NNW 11.5 mph 16.1 mph N/A   Clear
10:54 AM 39.2 °F 30.8 °F 32.0 °F 75% 29.86 in 10.0 mi NW 15.0 mph - N/A   Clear
11:14 AM 39.2 °F 31.6 °F 32.0 °F 75% 29.86 in 10.0 mi NW 12.7 mph - N/A   Clear
11:34 AM 37.4 °F 28.9 °F 32.0 °F 81% 29.85 in 10.0 mi NW 13.8 mph 17.3 mph N/A   Clear
11:54 AM 39.2 °F 32.0 °F 32.0 °F 75% 29.85 in 10.0 mi NW 11.5 mph - N/A   Clear
12:14 PM 39.2 °F 32.0 °F 32.0 °F 75% 29.85 in 10.0 mi NNW 11.5 mph - N/A   Clear
12:34 PM 41.0 °F 34.7 °F 33.8 °F 76% 29.85 in 10.0 mi NW 10.4 mph - N/A   Clear
12:54 PM 39.2 °F 31.6 °F 33.8 °F 81% 29.85 in 10.0 mi NW 12.7 mph - N/A   Clear
1:14 PM 41.0 °F 33.9 °F 32.0 °F 70% 29.86 in 10.0 mi NW 12.7 mph 18.4 mph N/A   Clear
1:34 PM 39.2 °F 31.6 °F 32.0 °F 75% 29.86 in 10.0 mi NW 12.7 mph 19.6 mph N/A   Clear
1:54 PM 39.2 °F 30.8 °F 32.0 °F 75% 29.86 in 10.0 mi NNW 15.0 mph 19.6 mph N/A   Clear
2:14 PM 39.2 °F 31.2 °F 32.0 °F 75% 29.86 in 10.0 mi NW 13.8 mph - N/A   Clear
2:34 PM 39.2 °F 31.2 °F 30.2 °F 70% 29.87 in 10.0 mi NNW 13.8 mph 23.0 mph N/A   Clear
2:54 PM 37.4 °F 28.9 °F 30.2 °F 75% 29.87 in 10.0 mi NNW 13.8 mph - N/A   Clear
3:14 PM 39.2 °F 31.2 °F 32.0 °F 75% 29.87 in 10.0 mi NW 13.8 mph 18.4 mph N/A   Clear
3:34 PM 37.4 °F 29.8 °F 30.2 °F 75% 29.87 in 10.0 mi NW 11.5 mph 16.1 mph N/A   Clear
3:54 PM 35.6 °F 27.1 °F 30.2 °F 81% 29.88 in 10.0 mi NW 12.7 mph 17.3 mph N/A   Clear
4:14 PM 33.8 °F 24.8 °F 30.2 °F 87% 29.89 in 10.0 mi NW 12.7 mph 19.6 mph N/A   Clear
4:34 PM 33.8 °F 25.8 °F 30.2 °F 87% 29.90 in 10.0 mi NW 10.4 mph - N/A   Clear
4:54 PM 33.8 °F 27.0 °F 28.4 °F 81% 29.91 in 10.0 mi NW 8.1 mph - N/A   Clear
5:14 PM 32.0 °F 24.2 °F 28.4 °F 87% 29.92 in 10.0 mi WNW 9.2 mph - N/A   Clear
5:34 PM 32.0 °F 23.0 °F 28.4 °F 87% 29.93 in 10.0 mi WNW 11.5 mph - N/A   Clear
5:54 PM 32.0 °F 22.5 °F 28.4 °F 87% 29.95 in 10.0 mi NW 12.7 mph - N/A   Clear
6:14 PM 30.2 °F 19.8 °F 28.4 °F 93% 29.96 in 10.0 mi NW 13.8 mph 18.4 mph N/A   Clear
6:34 PM 30.2 °F 19.8 °F 28.4 °F 93% 29.97 in 10.0 mi NW 13.8 mph - N/A   Clear
6:54 PM 30.2 °F 21.3 °F 28.4 °F 93% 29.98 in 10.0 mi NW 10.4 mph - N/A   Scattered Clouds
7:14 PM 32.0 °F 22.1 °F 30.2 °F 93% 29.99 in 7.0 mi NW 13.8 mph - N/A   Overcast
7:34 PM 32.0 °F 20.8 °F 28.4 °F 87% 30.00 in 10.0 mi NW 17.3 mph 24.2 mph N/A   Overcast
7:54 PM 30.2 °F 17.8 °F 28.4 °F 93% 30.02 in 10.0 mi NW 19.6 mph - N/A   Overcast
8:14 PM 30.2 °F 18.5 °F 26.6 °F 86% 30.03 in 10.0 mi NW 17.3 mph 24.2 mph N/A   Overcast
8:34 PM 30.2 °F 18.5 °F 26.6 °F 86% 30.03 in 10.0 mi NW 17.3 mph 24.2 mph N/A   Overcast
8:54 PM 28.4 °F 15.1 °F 24.8 °F 86% 30.04 in 10.0 mi NW 20.7 mph 27.6 mph N/A   Overcast
9:14 PM 28.4 °F 15.4 °F 24.8 °F 86% 30.06 in 10.0 mi NNW 19.6 mph 26.5 mph N/A   Overcast
9:34 PM 28.4 °F 16.2 °F 24.8 °F 86% 30.06 in 10.0 mi NW 17.3 mph 26.5 mph N/A   Overcast
9:54 PM 28.4 °F 15.4 °F 24.8 °F 86% 30.08 in 10.0 mi NW 19.6 mph 26.5 mph N/A   Overcast
10:14 PM 26.6 °F 13.1 °F 23.0 °F 86% 30.09 in 10.0 mi NNW 19.6 mph 29.9 mph N/A   Overcast
10:34 PM 26.6 °F 13.1 °F 21.2 °F 80% 30.11 in 10.0 mi NW 19.6 mph 27.6 mph N/A   Overcast
10:54 PM 24.8 °F 9.3 °F 21.2 °F 86% 30.13 in 10.0 mi NW 24.2 mph 31.1 mph N/A   Overcast
11:14 PM 24.8 °F 10.0 °F 21.2 °F 86% 30.15 in 10.0 mi NW 21.9 mph 31.1 mph N/A   Overcast
11:34 PM 24.8 °F 11.9 °F 21.2 °F 86% 30.14 in 10.0 mi NW 16.1 mph 27.6 mph N/A   Overcast
11:54 PM 23.0 °F 8.3 °F 21.2 °F 93% 30.14 in 10.0 mi NW 19.6 mph 25.3 mph N/A   Overcast